TimeCDT,TemperatureF,Dew PointF,Humidity,Sea Level PressureIn,VisibilityMPH,Wind Direction,Wind SpeedMPH,Gust SpeedMPH,PrecipitationIn,Events,Conditions,WindDirDegrees,DateUTC
12:53 AM,59.0,55.9,90,30.04,9.0,Calm,Calm,-,N/A,,Clear,0,2013-10-12 05:53:00
1:53 AM,57.0,55.0,93,30.04,9.0,Calm,Calm,-,N/A,,Clear,0,2013-10-12 06:53:00
2:53 AM,57.0,54.0,89,30.04,7.0,Calm,Calm,-,N/A,,Clear,0,2013-10-12 07:53:00
3:53 AM,55.9,54.0,93,30.05,8.0,Calm,Calm,-,N/A,,Clear,0,2013-10-12 08:53:00
4:15 AM,55.4,53.6,94,30.06,6.0,Calm,Calm,-,N/A,,Scattered Clouds,0,2013-10-12 09:15:00
4:38 AM,55.4,53.6,94,30.06,1.0,Calm,Calm,-,N/A,,Scattered Clouds,0,2013-10-12 09:38:00
4:40 AM,55.4,53.6,94,30.06,1.0,Calm,Calm,-,N/A,,Mostly Cloudy,0,2013-10-12 09:40:00
4:53 AM,55.0,53.1,93,30.05,1.0,Calm,Calm,-,N/A,,Mostly Cloudy,0,2013-10-12 09:53:00
5:53 AM,54.0,52.0,93,30.06,2.0,Calm,Calm,-,N/A,,Scattered Clouds,0,2013-10-12 10:53:00
5:55 AM,53.6,51.8,94,30.07,0.8,Calm,Calm,-,N/A,,Mist,0,2013-10-12 10:55:00
6:20 AM,53.6,51.8,94,30.08,1.2,Calm,Calm,-,N/A,,Scattered Clouds,0,2013-10-12 11:20:00
6:23 AM,53.6,51.8,94,30.08,2.0,Calm,Calm,-,N/A,,Scattered Clouds,0,2013-10-12 11:23:00
6:32 AM,53.6,51.8,94,30.08,6.0,Calm,Calm,-,N/A,,Scattered Clouds,0,2013-10-12 11:32:00
6:53 AM,53.1,51.1,93,30.07,6.0,Calm,Calm,-,N/A,Fog,Patches of Fog,0,2013-10-12 11:53:00
7:53 AM,55.9,53.1,90,30.09,8.0,Calm,Calm,-,N/A,Fog,Patches of Fog,0,2013-10-12 12:53:00
8:53 AM,62.1,57.0,84,30.09,9.0,Calm,Calm,-,N/A,,Partly Cloudy,0,2013-10-12 13:53:00
9:53 AM,69.1,55.9,63,30.09,10.0,SSE,3.5,-,N/A,,Scattered Clouds,160,2013-10-12 14:53:00
10:53 AM,75.0,55.0,50,30.10,10.0,SSW,4.6,-,N/A,,Mostly Cloudy,200,2013-10-12 15:53:00
11:53 AM,78.1,55.0,45,30.11,10.0,South,3.5,-,N/A,,Mostly Cloudy,180,2013-10-12 16:53:00
12:53 PM,80.1,57.0,45,30.09,10.0,NNW,5.8,-,N/A,,Mostly Cloudy,330,2013-10-12 17:53:00
1:53 PM,79.0,55.9,45,30.08,10.0,WNW,5.8,-,N/A,,Mostly Cloudy,290,2013-10-12 18:53:00
2:53 PM,79.0,57.9,48,30.08,10.0,Variable,4.6,-,N/A,,Mostly Cloudy,0,2013-10-12 19:53:00
3:53 PM,78.1,57.9,50,30.06,10.0,SW,3.5,-,N/A,,Mostly Cloudy,220,2013-10-12 20:53:00
4:53 PM,75.9,60.1,58,30.05,10.0,Calm,Calm,-,N/A,,Mostly Cloudy,0,2013-10-12 21:53:00
5:53 PM,75.0,60.1,60,30.05,10.0,East,3.5,-,N/A,,Mostly Cloudy,100,2013-10-12 22:53:00
6:53 PM,69.1,59.0,70,30.05,10.0,SSE,4.6,-,N/A,,Scattered Clouds,150,2013-10-12 23:53:00
7:53 PM,66.9,59.0,76,30.07,10.0,Calm,Calm,-,N/A,,Scattered Clouds,0,2013-10-13 00:53:00
8:53 PM,68.0,61.0,78,30.10,10.0,Calm,Calm,-,N/A,,Scattered Clouds,0,2013-10-13 01:53:00
9:53 PM,64.9,61.0,87,30.12,10.0,Calm,Calm,-,N/A,,Clear,0,2013-10-13 02:53:00
10:53 PM,64.0,60.1,87,30.12,10.0,Calm,Calm,-,N/A,,Clear,0,2013-10-13 03:53:00
11:53 PM,64.0,61.0,90,30.12,10.0,Calm,Calm,-,N/A,,Clear,0,2013-10-13 04:53:00